Home   Weather   Idaho Falls   Past weeks

Flag for USA Past Weather in Idaho Falls, Idaho, USA — August 2017

Now
83 °F

Sunny.


Feels Like: 81 °F
Forecast: 59 / 89 °F
Wind: 12 mph from South

Location: Fanning Field

Current Time: Jul 20, 2018 at 10:11:47 pm

Latest Report: Jul 20, 2018 at 8:53 pm


Visibility: 10 mi

Pressure: 29.86 "Hg (25.40 "Hg at 1429m altitude)

Humidity: 24%

Dew Point: 42 °F

Location of Idaho FallsLocation

August 2017 Weather in Idaho Falls — Graph

°F

High & Low Weather Summary for August 2017

 TemperatureHumidityPressure
High93 °F (Aug 1, 3:53 pm)100% (Aug 15, 4:53 am)30.21 "Hg (Aug 15, 4:53 am)
Low43 °F (Aug 22, 6:53 am)8% (Aug 27, 4:53 pm)29.71 "Hg (Aug 4, 11:53 pm)
Average68 °F50%29.99 "Hg
* Reported Aug 1 12:53 am — Aug 31 11:53 pm, Idaho Falls. Weather by CustomWeather, © 2018

Note: Actual official high and low records may vary slightly from our data, if they occured in-between our weather recording intervals... More about our weather records

Advertising

Idaho Falls Weather History for August 1, 2017

Scroll right to see more
 ConditionsComfort  
Time TempWeatherWind HumidityBarometerVisibility
12:53 am
Tue, Aug 1
65 °FClear.No wind56%30.09 "Hg10 mi
1:53 am56 °FClear.3 mph77%30.12 "Hg10 mi
2:53 am60 °FClear.No wind67%30.10 "Hg10 mi
3:53 am53 °FClear.6 mph86%30.10 "Hg10 mi
4:53 am52 °FClear.6 mph83%30.12 "Hg10 mi
5:53 am51 °FClear.No wind86%30.14 "Hg10 mi
6:53 am55 °FPassing clouds.3 mph74%30.13 "Hg10 mi
7:53 am55 °FPassing clouds.No wind87%30.14 "Hg10 mi
8:53 am65 °FPassing clouds.3 mph66%30.15 "Hg10 mi
9:53 am72 °FSunny.6 mph49%30.14 "Hg10 mi
10:53 am78 °FSunny.6 mph37%30.14 "Hg10 mi
11:53 am82 °FSunny.No wind34%30.12 "Hg10 mi
12:53 pm86 °FPassing clouds.N/A28%30.10 "Hg10 mi
1:53 pm89 °FSunny.6 mph21%30.09 "Hg10 mi
2:53 pm92 °FScattered clouds.6 mph17%30.06 "Hg10 mi
3:53 pm93 °FSunny.8 mph14%30.05 "Hg10 mi
4:53 pm93 °FScattered clouds.10 mph13%30.02 "Hg10 mi
5:53 pm92 °FScattered clouds.6 mph12%30.01 "Hg10 mi
6:53 pm91 °FSunny.5 mph14%30.00 "Hg10 mi
7:53 pm83 °FSunny.5 mph24%30.02 "Hg9 mi
8:53 pm80 °FSunny.14 mph25%30.01 "Hg10 mi
9:53 pm77 °FClear.6 mph31%30.03 "Hg10 mi
10:53 pm72 °FClear.3 mph40%30.02 "Hg10 mi
11:53 pm60 °FClear.5 mph72%30.04 "Hg10 mi
Weather by CustomWeather, © 2018

See weather overview